EUTELSAT 7C

Last updated on Thu Mar 05 2026 00:02:59 GMT+0000 (Coordinated Universal Time)

1 44334U 19034B 26063.37683795 .00000036 00000+0 00000+0 0 9997 2 44334 0.0721 179.7683 0003295 150.5272 334.4562 1.00270313 5786
UTC large
Height (km)
Speed (km/s)
/
Latitude / Longitude
Inclination (degrees)
Orbital Period (minutes)
Azimuth
Elevation
Range (km)
Doppler Factor

Next 0 passes for location: London (51.5072 / 0.1276)

Sorry there are no passes over London.